Location: *
(48.8167°S, 169.4833°W)
Time: 02:12:47
(UTC+00:00)

Daily predictions for brighter satellites

Satellite Brightness Start Highest point End
(mag) Time Altitude Azimuth Time Altitude Azimuth Time Altitude Azimuth
USA 308 4.0 05:45:55 10° WSW 05:50:07 44° NW 05:54:16 10° NNE
Cosmos 1758 4.1 05:46:41 10° S 05:50:22 32° ESE 05:53:59 10° NE
Cosmos 2237 Rocket 3.3 05:45:39 10° NW 05:51:12 51° SW 05:56:50 10° SSE
Okean 1 Rocket 3.7 05:48:02 10° SSW 05:52:28 63° W 05:56:54 10° N
Cosmos 1271 Rocket 4.5 05:50:26 10° NW 05:54:04 38° WSW 05:57:43 10° S
SL-16 R/B 2.2 05:48:48 10° NNW 05:54:26 74° ENE 06:00:11 10° SSE
Cosmos 1726 3.3 05:54:12 10° SSE 05:57:17 24° ESE 06:00:20 10° NE
CZ-2C R/B 4.4 05:53:25 10° NE 05:57:53 40° ESE 06:02:25 10° S
FALCON 9 DEB 3.5 05:55:03 10° WSW 05:58:35 59° SSE 06:02:06 10° E
Cosmos 1975 Rocket 3.3 05:55:50 10° N 06:00:07 51° E 06:04:32 10° SSE
Cosmos 371 Rocket 4.1 05:56:58 10° S 06:01:31 35° ESE 06:05:59 10° ENE
Cosmos 2279 Rocket 4.1 05:56:14 10° S 06:02:25 57° ESE 06:08:35 10° NNE
YAOGAN 1 3.8 06:00:29 10° SE 06:03:57 22° E 06:07:23 10° NE
USA 281 3.5 05:57:24 10° SSE 06:04:04 80° WSW 06:10:40 10° NW
NOAA 11 4.2 06:04:39 10° SSE 06:10:12 64° E 06:15:41 10° N
SMAP 3.7 06:07:35 10° S 06:12:17 63° WSW 06:16:56 10° NNW
Cosmos 1943 4.1 06:08:01 10° NNE 06:12:44 27° ENE 06:17:30 10° SE
Orbus 7S? 3.4 06:14:27 10° WNW 06:17:31 48° SSW 06:20:03 10° SE
NOAA 12 4.5 06:12:21 10° S 06:17:42 71° WSW 06:22:57 10° NNW
SL-4 R/B 1.5 06:14:41 10° WSW 06:18:14 87° NNW 06:20:59 15° ENE
Cosmos 1624 Rocket 4.1 06:13:19 10° SSW 06:18:36 62° ESE 06:23:47 10° NE
Cosmos 1939 Rocket 2.9 06:16:01 10° SSE 06:20:03 60° E 06:24:06 10° N
BREEZE-M DEB (TANK) 3.1 06:10:20 10° W 06:20:23 83° S 06:23:12 14° E
Cosmos 1818 4.1 06:17:35 10° SSW 06:22:47 43° SE 06:26:58 15° ENE
USA 267 4.1 06:17:41 10° ESE 06:23:53 44° S 06:30:04 10° WSW
Okean 2 4.0 06:19:54 10° NNW 06:24:00 62° WSW 06:28:09 10° S
Cosmos 1356 Rocket 4.4 06:24:13 10° S 06:27:47 27° ESE 06:29:54 18° ENE
FALCON 9 DEB 3.7 06:24:37 10° W 06:27:54 53° SSW 06:30:56 12° ESE
Cosmos 1544 Rocket 3.6 06:24:00 10° S 06:28:32 67° ESE 06:32:59 10° NNE
FengYun 1-2 T 4.3 06:22:55 10° SSE 06:28:32 85° WSW 06:34:05 10° NNW
Cosmos 1470 3.0 06:27:03 10° SSW 06:31:08 76° W 06:35:08 10° N
Cosmos 923 Rocket 4.2 06:26:44 10° NNW 06:32:01 79° WSW 06:37:25 10° SSE
Cosmos 2369 Rocket 2.2 06:28:16 10° SSW 06:33:58 86° ESE 06:39:37 10° NNE
CZ-4B R/B 4.5 06:30:58 10° S 06:36:05 44° WSW 06:41:15 10° NW
FALCON 9 DEB 3.8 06:34:47 10° W 06:38:03 49° SSW 06:40:41 15° ESE
Cosmos 1437 3.9 06:36:31 10° NNW 06:39:26 43° WSW 06:42:24 10° S
Cosmos 304 Rocket 4.4 06:35:24 10° S 06:40:01 39° ESE 06:42:46 21° ENE
Cosmos 158 Rocket 4.0 06:35:29 10° NNW 06:40:24 78° WSW 06:45:24 10° SSE
Okean-O 2.6 06:36:29 10° SSE 06:41:00 63° ENE 06:45:25 10° N
Cosmos 1603 3.8 06:35:41 10° N 06:41:05 50° ENE 06:46:35 10° SE
Cosmos 1025 Rocket 3.1 06:40:36 10° N 06:44:56 58° E 06:49:18 10° SSE
Cosmos 1707 2.7 06:42:33 10° N 06:46:30 88° E 06:50:30 10° S
Cosmos 2263 4.2 06:42:05 10° SSW 06:47:49 83° ESE 06:52:38 15° NNE
IRS-1C Rocket 4.2 06:42:40 10° SSE 06:48:04 85° WSW 06:53:22 10° NNW
CZ-2D R/B 3.3 06:44:20 10° SSE 06:48:18 88° WSW 06:52:14 10° NNW
In-Cosmos 22 4.3 06:47:37 10° N 06:53:16 63° E 06:59:04 10° SSE
CZ-2C R/B 4.2 06:48:14 10° NNW 06:53:20 37° W 06:58:23 10° SSW
Helios 1A Rocket 3.4 06:58:52 10° S 07:02:57 62° WSW 07:07:00 10° NNW
Okean O Rocket 4.4 06:59:45 10° SSW 07:03:08 21° WSW 07:06:30 10° WNW
CSL-04 Rocket 3.8 06:58:32 10° SSE 07:03:46 51° E 07:08:58 10° N
Cosmos 1953 2.4 07:00:14 10° S 07:04:26 84° W 07:07:40 16° N
Cosmos 1536 Rocket 3.5 07:00:13 10° N 07:04:41 71° E 07:09:11 10° SSE
CSL-04 Debris 4.2 06:59:40 10° SSE 07:05:07 56° E 07:10:28 10° N
CZ-2C R/B 2.8 07:01:15 10° SSE 07:06:04 66° ENE 07:10:59 10° N
SL-24 R/B - RUBIN 2 3.7 07:02:09 10° SW 07:06:32 63° SE 07:08:22 35° ENE
FALCON 9 DEB 4.1 07:03:46 10° W 07:06:57 40° S 07:08:19 26° SE
Cosmos 1900 4.2 07:02:30 10° NNW 07:07:30 74° ENE 07:12:27 10° SE
Cosmos 1656 Rocket 3.6 07:02:25 10° SSW 07:07:59 87° ESE 07:11:18 25° NNE
CRYOSAT 2 4.4 07:09:43 26° NNE 07:12:25 61° E 07:17:19 10° S
Ariane Rocket 4.2 07:08:25 10° SE 07:11:38 24° ESE 07:11:38 24° ESE
Cosmos 2228 3.6 07:09:30 10° S 07:13:44 38° ESE 07:14:13 37° E
ERBS 2.1 07:11:43 10° SW 07:15:08 89° NW 07:15:32 68° NE
CZ-4 R/B 2.0 07:11:20 10° S 07:15:30 61° WSW 07:19:41 10° NNW
H-2A R/B 3.4 07:14:31 30° NNE 07:16:31 88° ESE 07:20:43 10° SSW
SJ-11-01 4.2 07:13:21 10° SSE 07:18:12 71° ENE 07:22:59 10° N
Lacrosse 5 3.2 07:13:58 10° WSW 07:18:36 34° NW 07:21:41 18° N
SeaSat 1 2.5 07:14:50 10° SSE 07:19:51 82° WSW 07:24:49 10° NW
Nadezhda 4 Rocket 4.0 07:14:35 10° N 07:20:54 89° E 07:27:20 10° S
Cosmos 1943 Rocket 4.0 07:16:15 10° SW 07:21:08 30° WNW 07:25:59 10° NNW
EO 1 Delta rocket 4.5 07:16:45 10° N 07:21:23 55° W 07:26:07 10° SSW
FALCON 9 DEB 4.1 07:18:28 10° WSW 07:21:39 39° S 07:22:25 33° SSE
Atlas Centaur 2 4.3 07:20:18 10° NNW 07:22:27 12° N 07:22:39 12° N
GEOS 3 Rocket 4.1 07:19:10 10° SE 07:24:09 58° SW 07:29:07 10° WNW
Cosmos 1674 2.5 07:23:45 46° N 07:24:46 79° E 07:28:36 10° SSE
Meteor 2-13 Rocket 4.4 07:21:42 12° N 07:27:14 65° E 07:33:19 10° SSE
H-2A R/B 1.8 07:24:28 10° SSE 07:29:33 79° ENE 07:34:28 10° N
Cosmos 1420 Rocket 4.4 07:26:03 10° SSW 07:31:19 63° WNW 07:34:21 25° N
ATLAS 5 CENTAUR R/B 3.5 07:27:06 10° WSW 07:31:42 28° WNW 07:34:50 14° NNW
Cosmos 1553 Rocket 4.4 07:26:04 10° S 07:31:55 41° ESE 07:33:05 38° E
Cosmos 1726 4.1 07:29:16 10° SSW 07:32:29 28° W 07:35:40 10° NNW
HJ-1C 3.8 07:31:48 10° S 07:35:10 62° WSW 07:36:07 41° NW
FALCON 9 DEB 4.2 07:32:13 10° WSW 07:35:25 37° NW 07:35:25 37° NW
SL-08 RB Rocket 3.8 07:31:32 10° SSE 07:36:13 54° E 07:36:13 54° E
ARGOS 3.0 07:31:59 10° SSE 07:37:27 70° ENE 07:40:26 27° N
SL-16 R/B 4.4 07:34:30 10° W 07:39:11 25° SW 07:43:55 10° SSE
YAOGAN 1 3.7 07:36:02 10° S 07:40:15 44° WSW 07:44:25 10° NW
Cosmos 1048 Rocket 4.1 07:48:07 55° E 07:48:07 55° E 07:52:59 10° SSE
Cosmos 1452 Rocket 3.7 07:42:59 10° SSW 07:48:19 70° WNW 07:49:59 44° N
Cosmos 1110 Rocket 4.1 07:44:29 10° SSW 07:49:46 58° ESE 07:50:13 56° E
Cosmos 2058 Rocket 3.9 07:45:41 10° S 07:49:05 38° SE 07:49:05 38° SE
Cosmos 1908 4.1 07:46:25 10° SSW 07:50:16 48° W 07:51:08 40° NW
Cosmos 1331 Rocket 4.2 07:46:11 10° SSW 07:51:29 55° ESE 07:51:50 54° ESE
Cosmos 1300 3.7 07:47:37 10° S 07:50:20 39° SSE 07:50:20 39° SSE
Meteor 2-8 Rocket 4.4 07:50:09 10° S 07:56:21 68° ESE 07:57:27 57° NE
Cosmos 1943 3.8 07:50:47 10° NW 07:56:26 58° WSW 08:02:09 10° SSE
SL-4 R/B 3.8 07:54:46 10° W 07:56:35 19° WNW 07:56:35 19° WNW
Cosmos 1626 3.9 08:01:34 26° SSE 08:01:34 26° SSE 08:03:19 10° S
Meteor 1-24 Rocket 3.8 08:01:31 59° NNE 08:02:33 70° E 08:08:36 10° SSE
MetOp-A 4.4 08:00:04 10° SSE 08:04:37 53° ESE 08:04:37 53° ESE
USA 267 3.6 08:03:54 38° ESE 08:06:16 57° SSE 08:12:44 10° SW
Cosmos 1818 4.4 08:01:18 10° SW 08:06:22 41° WNW 08:07:37 36° NNW
Meteor 2-5 Rocket 3.8 08:07:43 36° NNW 08:10:19 84° W 08:16:22 10° S
Cosmos 1697 Rocket 4.0 08:16:39 10° SSW 08:21:28 27° SE 08:21:28 27° SE
Cosmos 1726 Rocket 4.2 08:18:24 10° SSW 08:22:23 55° WSW 08:22:23 55° WSW
Cosmos 2026 Rocket 4.2 08:22:07 31° NNW 08:25:14 67° WSW 08:31:28 10° S
Cosmos 1656 4.4 08:20:29 10° SSW 08:25:14 41° SE 08:25:14 41° SE
Meteor 2-10 Rocket 4.1 08:22:01 10° S 08:26:35 51° SE 08:26:35 51° SE
MOS 1 4.2 08:21:53 10° SSE 08:27:23 80° SE 08:27:23 80° SE
Cosmos 1980 Rocket 4.0 08:24:49 10° S 08:29:02 20° SE 08:29:22 20° SE
S3M 3.9 08:23:30 10° S 08:30:01 77° E 08:30:06 76° E
Cosmos 1655 Rocket 4.2 08:34:09 61° ESE 08:34:09 61° ESE 08:39:50 10° SSE
Meteor 2-15 4.4 08:35:55 10° S 08:41:55 83° SW 08:41:55 83° SW
NOSS 3-3 (A) 4.2 08:42:06 10° SW 08:48:35 63° SSE 08:48:35 63° SSE
NOSS 3-3 (C) 4.2 08:42:17 10° SW 08:48:44 63° SSE 08:48:44 63° SSE
Ariane Rocket 3.7 08:46:55 10° S 08:51:51 50° WSW 08:51:51 50° WSW
Cosmos 2315 Rocket 4.3 09:01:54 10° S 09:07:16 61° SSE 09:07:16 61° SSE
Resurs 01 Rocket 3.9 09:19:00 10° S 09:20:37 21° S 09:20:37 21° S
USA 267 4.0 09:51:14 46° WSW 09:51:14 46° WSW 09:55:50 10° WSW
Cosmos 2360 Rocket 4.4 09:58:46 10° S 10:02:25 17° SE 10:02:31 17° SE
Cosmos 1697 Rocket 4.3 10:00:17 10° SSW 10:03:12 31° SW 10:03:12 31° SW
Cosmos 1980 Rocket 3.8 10:08:11 10° SSW 10:11:08 32° SSW 10:11:08 32° SSW
Cosmos 2322 Rocket 4.1 10:19:36 10° SSW 10:22:44 25° SSE 10:22:44 25° SSE
NOSS 3-2 (A) 4.4 10:33:06 57° S 10:33:06 57° S 10:39:10 10° SE
Cosmos 2082 Rocket 4.2 10:42:24 22° SSE 10:42:24 22° SSE 10:44:23 10° SSE
SL-16 R/B 4.0 10:33:08 10° SSW 10:36:04 28° S 10:36:04 28° S
USA 215 4.3 10:52:05 10° ESE 10:56:20 39° SSE 10:56:20 39° SSE
NOSS 3-2 (C) 4.5 11:13:11 54° S 11:13:11 54° S 11:19:19 10° SE
Resurs 1-4 Rocket 4.1 11:17:15 25° S 11:17:15 25° S 11:19:37 10° S
CENTAUR R/B 3.6 11:22:52 45° S 11:22:52 45° S 11:27:45 10° SE
Terra 4.5 11:24:05 10° S 11:25:21 16° SSW 11:25:21 16° SSW
CZ-2D R/B 4.1 11:31:59 25° S 11:31:59 25° S 11:34:15 10° S
Cosmos 2333 Rocket 4.1 11:25:51 10° SSW 11:29:50 26° SSE 11:29:50 26° SSE
ATLAS 3B R/B 3.6 11:36:45 48° SE 11:36:45 48° SE 11:41:52 10° SE
Cosmos 2360 Rocket 4.1 11:41:54 10° SSW 11:44:15 25° SSW 11:44:15 25° SSW
